| time (UTC) | temp F | wind direction | speed MPH | gust MPH | rain 1hr in | rain 24hr in | rain mn in | humidity % | barometer mb |
| 20260906051602 | 56 | 347 | 0.0 | 1.0 | 0.00 | 0.00 | 0.00 | 65 | 1016.3 |
| 20260906044605 | 60 | 36 | 0.0 | 1.0 | 0.00 | 0.00 | 0.00 | 48 | 1016.3 |
| 20260906041602 | 60 | 330 | 0.0 | 3.0 | 0.00 | 0.00 | 0.00 | 47 | 1016.0 |
| 20260906034602 | 61 | 333 | 3.0 | 8.0 | 0.00 | 0.00 | 0.00 | 46 | 1015.8 |
| 20260906033103 | 60 | 307 | 4.0 | 7.0 | 0.00 | 0.00 | 0.00 | 49 | 1015.9 |
| 20260906031602 | 59 | 333 | 7.0 | 7.0 | 0.00 | 0.00 | 0.00 | 49 | 1016.0 |
| 20260906024602 | 59 | 318 | 1.0 | 5.0 | 0.00 | 0.00 | 0.00 | 55 | 1015.7 |
| 20260906023101 | 60 | 322 | 0.0 | 5.0 | 0.00 | 0.00 | 0.00 | 52 | 1015.6 |
| 20260906021601 | 62 | 322 | 1.0 | 4.0 | 0.00 | 0.00 | 0.00 | 49 | 1015.3 |
| 20260906014602 | 67 | 23 | 1.0 | 2.0 | 0.00 | 0.00 | 0.00 | 48 | 1015.4 |
| 20260906013102 | 69 | 269 | 0.0 | 3.0 | 0.00 | 0.00 | 0.00 | 41 | 1015.4 |
| 20260906011602 | 73 | 237 | 0.0 | 1.0 | 0.00 | 0.00 | 0.00 | 33 | 1015.3 |
| 20260906004602 | 73 | 225 | 0.0 | 4.0 | 0.00 | 0.00 | 0.00 | 31 | 1015.4 |
| 20260906003102 | 76 | 170 | 0.0 | 3.0 | 0.00 | 0.00 | 0.00 | 25 | 1015.4 |
| 20260906001602 | 75 | 131 | 0.0 | 4.0 | 0.00 | 0.00 | 0.00 | 26 | 1015.4 |
| 20260905234602 | 76 | 94 | 1.0 | 4.0 | 0.00 | 0.00 | 0.00 | 29 | 1015.5 |
| 20260905233102 | 75 | 333 | 0.0 | 2.0 | 0.00 | 0.00 | 0.00 | 29 | 1015.6 |
| 20260905224602 | 75 | 236 | 4.0 | 10.0 | 0.00 | 0.00 | 0.00 | 29 | 1015.8 |
| 20260905223102 | 76 | 173 | 0.0 | 5.0 | 0.00 | 0.00 | 0.00 | 29 | 1015.9 |
| 20260905221603 | 75 | 131 | 5.0 | 7.0 | 0.00 | 0.00 | 0.00 | 31 | 1016.0 |
| 20260905214602 | 74 | 107 | 5.0 | 8.0 | 0.00 | 0.00 | 0.00 | 33 | 1016.4 |
| 20260905213102 | 74 | 142 | 0.0 | 5.0 | 0.00 | 0.00 | 0.00 | 35 | 1016.4 |
| 20260905211602 | 74 | 42 | 1.0 | 4.0 | 0.00 | 0.00 | 0.00 | 35 | 1016.5 |
| 20260905204602 | 73 | 231 | 0.0 | 4.0 | 0.00 | 0.00 | 0.00 | 37 | 1016.6 |
| 20260905203102 | 73 | 148 | 0.0 | 7.0 | 0.00 | 0.00 | 0.00 | 41 | 1016.8 |
| 20260905201602 | 72 | 228 | 0.0 | 5.0 | 0.00 | 0.00 | 0.00 | 39 | 1016.9 |
| 20260905194605 | 70 | 120 | 0.0 | 4.0 | 0.00 | 0.00 | 0.00 | 40 | 1017.1 |
| 20260905193106 | 69 | 110 | 3.0 | 5.0 | 0.00 | 0.00 | 0.00 | 41 | 1017.1 |
| 20260905191603 | 69 | 138 | 1.0 | 5.0 | 0.00 | 0.00 | 0.00 | 41 | 1017.3 |
| 20260905184602 | 66 | 111 | 2.0 | 4.0 | 0.00 | 0.00 | 0.00 | 51 | 1017.8 |
| 20260905183102 | 65 | 210 | 0.0 | 3.0 | 0.00 | 0.00 | 0.00 | 55 | 1018.0 |
| 20260905181602 | 63 | 91 | 0.0 | 4.0 | 0.00 | 0.00 | 0.00 | 55 | 1018.1 |
| 20260905180106 | 62 | 134 | 1.0 | 4.0 | 0.00 | 0.00 | 0.00 | 59 | 1018.2 |
| 20260905174602 | 61 | 136 | 2.0 | 4.0 | 0.00 | 0.00 | 0.00 | 59 | 1018.4 |
| 20260905173103 | 60 | 122 | 0.0 | 2.0 | 0.00 | 0.00 | 0.00 | 63 | 1018.4 |
| 20260905171602 | 57 | 121 | 0.0 | 3.0 | 0.00 | 0.00 | 0.00 | 67 | 1018.7 |
| 20260905170104 | 57 | 121 | 0.0 | 3.0 | 0.00 | 0.00 | 0.00 | 67 | 1018.7 |
| 20260905164603 | 55 | 114 | 0.0 | 2.0 | 0.00 | 0.00 | 0.00 | 69 | 1018.7 |
| 20260905163102 | 54 | 118 | 0.0 | 2.0 | 0.00 | 0.00 | 0.00 | 72 | 1018.6 |
| 20260905161602 | 53 | 34 | 0.0 | 3.0 | 0.00 | 0.00 | 0.00 | 73 | 1018.6 |
| 20260905153102 | 52 | 132 | 2.0 | 3.0 | 0.00 | 0.00 | 0.00 | 75 | 1018.8 |
| 20260905151604 | 52 | 213 | 0.0 | 1.0 | 0.00 | 0.00 | 0.00 | 75 | 1018.9 |
| 20260905144602 | 49 | 145 | 0.0 | 1.0 | 0.00 | 0.00 | 0.00 | 79 | 1019.0 |
| 20260905134602 | 41 | 1 | 0.0 | 1.0 | 0.00 | 0.00 | 0.00 | 86 | 1018.6 |
| 20260905133101 | 42 | 326 | 1.0 | 3.0 | 0.00 | 0.00 | 0.00 | 86 | 1018.6 |
| 20260905131603 | 41 | 19 | 0.0 | 1.0 | 0.00 | 0.00 | 0.00 | 87 | 1018.5 |
| 20260905124602 | 41 | 329 | 0.0 | 2.0 | 0.00 | 0.00 | 0.00 | 89 | 1018.5 |
| 20260905123102 | 41 | 354 | 0.0 | 2.0 | 0.00 | 0.00 | 0.00 | 87 | 1018.4 |
| 20260905121602 | 41 | 338 | 0.0 | 1.0 | 0.00 | 0.00 | 0.00 | 89 | 1018.5 |
| 20260905114602 | 39 | 338 | 0.0 | 2.0 | 0.00 | 0.00 | 0.00 | 90 | 1018.2 |
| 20260905111605 | 41 | 274 | 0.0 | 0.0 | 0.00 | 0.00 | 0.00 | 87 | 1018.0 |
| 20260905104601 | 42 | 309 | 0.0 | 1.0 | 0.00 | 0.00 | 0.00 | 85 | 1018.0 |
| 20260905103101 | 44 | 278 | 0.0 | 2.0 | 0.00 | 0.00 | 0.00 | 83 | 1017.8 |
| 20260905101605 | 45 | 319 | 1.0 | 3.0 | 0.00 | 0.00 | 0.00 | 82 | 1017.6 |
| 20260905100101 | 43 | 319 | 1.0 | 5.0 | 0.00 | 0.00 | 0.00 | 86 | 1017.6 |
| 20260905094602 | 43 | 328 | 1.0 | 2.0 | 0.00 | 0.00 | 0.00 | 85 | 1017.5 |
| 20260905093102 | 42 | 319 | 1.0 | 2.0 | 0.00 | 0.00 | 0.00 | 88 | 1017.4 |
| 20260905091602 | 42 | 6 | 1.0 | 1.0 | 0.00 | 0.00 | 0.00 | 88 | 1017.4 |
| 20260905084601 | 42 | 316 | 0.0 | 1.0 | 0.00 | 0.00 | 0.00 | 86 | 1017.3 |
| 20260905083101 | 43 | 316 | 0.0 | 0.0 | 0.00 | 0.00 | 0.00 | 84 | 1017.2 |
| 20260905081605 | 44 | 281 | 1.0 | 2.0 | 0.00 | 0.00 | 0.00 | 85 | 1017.2 |
| 20260905074602 | 44 | 24 | 1.0 | 1.0 | 0.00 | 0.00 | 0.00 | 84 | 1017.0 |
| 20260905073103 | 46 | 12 | 0.0 | 1.0 | 0.00 | 0.00 | 0.00 | 81 | 1016.8 |
| 20260905071602 | 47 | 221 | 0.0 | 1.0 | 0.00 | 0.00 | 0.00 | 79 | 1016.7 |
| 20260905064602 | 49 | 322 | 0.0 | 2.0 | 0.00 | 0.00 | 0.00 | 74 | 1016.4 |
| 20260905061602 | 49 | 308 | 1.0 | 7.0 | 0.00 | 0.00 | 0.00 | 77 | 1016.4 |
| 20260905054601 | 48 | 282 | 1.0 | 2.0 | 0.00 | 0.00 | 0.00 | 78 | 1016.2 |
| 20260905053102 | 49 | 42 | 1.0 | 3.0 | 0.00 | 0.00 | 0.00 | 76 | 1016.0 |